User: anonymous   Login
Location: Bois de la Silve
(44.4667°N, 6.7833°E)
Time: 09:58:08
(UTC+00:00)
Language:

Cosmos 1741 Rocket - Orbit

View from above orbital plane
View from above orbital plane
View from above satellite
View from above satellite

Ground track
Ground track

The orbit data is extracted from the following two-line orbital elements,

1 16682U 86030B   20271.93755181 -.00000002 +00000-0 +82831-5 0  9991
2 16682 074.0276 184.7462 0015715 233.0474 200.3550 14.35908317802966
Epoch (UTC): 27 September 2020 22:30:04
Eccentricity: 0.0015715
inclination: 74.0276°
perigee height: 761 km
apogee height: 783 km
right ascension of ascending node: 184.7462°
argument of perigee: 233.0474°
revolutions per day: 14.35908317
mean anomaly at epoch: 200.3550°
orbit number at epoch: 80296

The dashed part of the orbit path shows where the satellite is in the earth's shadow,  

DLR